PSAT2 (NO-104) (44354 NORAD) Tracking and Keplerian Element Data

This shows tracking and keplerian element data for the satellite.

Feedback or suggestion? Click here.




ElementValue
Catalog44354
NamePSAT2 (NO-104)
Epoch Orbit18896
Epoch Day324.90555722
Epoch Year2022
RAAN157.8728
Inclination28.5191
Eccentricity0.0152436
Argument of Perigee321.1718
Mean Anonmoly37.802
Mean Motion15.64013322
Decay Rate0.00092865
L11 44354U 19036R 22324.90555722 .00092865 -44549-5 49127-3 0 9995
L22 44354 28.5191 157.8728 0152436 321.1718 37.8020 15.64013322188969



Live tracking and technical data element details for PSAT2 (NO-104) (NORAD 44354). PSAT2 (NO-104) can be tracked NOW for your location showing map with azimuth and elevation plus other details from your city location.







IsCatalogInMostPopularTable: catalog: 44354, numindb: 259
Update: records affected: 1



GetName: 44354 PSAT2 (NO-104)

Hit Count: updated at: Mon, 28 Nov 2022 04:11:39 GMT